Weather in Tokarevo

Russia / Republic of Crimea     45°17′02″N   35°09′08″E
temp.,
°C
wind,
m/s
gust,
m/s
humid.,
%
clouds,
%
prec.,
mm/h
press.,
hPa
HPBL,
m
2 march, tue
tue200:00+2nnw34825 0.0 1029252
03:00+1wnw458928 0.0 1030190
06:00+2wnw358675 0.1 1030227
09:00+2wnw458341 0.1 1030293
12:00+5nw45590 0.0 1030894
15:00+7w56520 0.0 10291223
18:00+6w596025 0.0 1026506
21:00+3w8117261 0.0 1025563
3 march, wed
wed300:00+3wsw8157522 0.0 1023556
03:00+4wsw9178017 0.0 1022690
06:00+4nw8118371 0.0 1021793
09:00+4nnw8117686 0.1 10231157
12:00+4nnw796999 0.1 1025963
15:00+6nnw685966 0.1 1025944
18:00+6nnw47610 0.0 1026342
21:00+4wnw35640 0.0 1028102
4 march, thu
thu400:00+3w34670 0.0 102889
03:00+2wsw34710 0.0 102888
06:00+2wsw34680 0.0 102685
09:00+4ssw23580 0.0 1026130
12:00+8ssw24510 0.0 1025933
15:00+10sw23450 0.0 10231023
18:00+7ssw35610 0.0 1021197
21:00+4ssw48740 0.0 1021259
5 march, fri
fri500:00+3ssw47800 0.0 1020227
03:00+3ssw59800 0.0 1019249
06:00+3ssw47830 0.0 1018169
09:00+5ssw58740 0.0 1018266
12:00+9s68630 0.0 1017353
15:00+11s685313 0.0 1016416
18:00+8s7116593 0.0 1015277
21:00+6s6118081 0.0 1015290
6 march, sat
sat600:00+6ssw51077100 0.0 1014232
03:00+6ssw587899 0.0 1014130
06:00+7sw3377100 0.0 101343
09:00+7n3577100 0.0 1014174
12:00+5n81083100 0.1 1015477
15:00+3n91095100 0.4 1016392
18:00+2nnw71077100 1.0 1017983
21:00+3nw5862100 1.2 10201088